Skip Page Navigation
NASA JPL Caltech
NASA Logo - Jet Propulsion Laboratory + View the NASA Portal
+ Near-Earth Object (NEO) Program
Search JPL
JPL Home Earth Solar System Stars & Galaxies Technology
JPL Solar System Dynamics
BODIES ORBITS EPHEMERIDES TOOLS PHYSICAL DATA DISCOVERY FAQ SITE MAP
JPL Small-Body Database Browser
Search: [ help ]  
6841 Gottfriedkirch (2034 P-L)
Classification: Main-belt Asteroid          SPK-ID: 2006841
Ephemeris | Orbit Diagram | Orbital Elements | Physical Parameters | Discovery Circumstances ]

[ hide orbit diagram ]
Orbit Diagram
Note: Make sure you have Java enabled on your browser to see the applet. This applet is provided as a 3D orbit visualization tool. The applet was implemented using 2-body methods, and hence should not be used for determining accurate long-term trajectories (over several years or decades) or planetary encounter circumstances. For accurate long-term ephemerides, please instead use our Horizons system.
Orbit Viewer

Additional Notes: the orbits shown in the applet are color coded. The planets are white lines, and the asteroid/comet is a blue line. The bright white line indicates the portion of the orbit that is above the ecliptic plane, and the darker portion is below the ecliptic plane. Likewise for the asteroid/comet orbit, the light blue indicates the portion above the ecliptic plane, and the dark blue the portion below the ecliptic plane.

Orbit Viewer applet originally written and kindly provided by Osamu Ajiki (AstroArts), and further modified by Ron Baalke (JPL).


Orbital Elements at Epoch 2456400.5 (2013-Apr-18.0) TDB
Reference: JPL 1 (heliocentric ecliptic J2000)
 Element Value Uncertainty (1-sigma)   Units 
e .1355753766813164 7.3978e-08  
a 2.279296780434442 1.224e-08 AU
q 1.97028026085853 1.7011e-07 AU
i 3.670122057287875 6.7358e-06 deg
node 271.673156089088 0.00011398 deg
peri 283.118819785087 0.00011648 deg
M 274.9007058064197 2.5085e-05 deg
tp 2456697.614057160491
(2014-Feb-09.11405716)
8.8215e-05 JED
period 1256.897152806768
3.44
1.0124e-05
2.772e-08
d
yr
n .2864196161126522 2.3071e-09 deg/d
Q 2.588313300010352 1.3899e-08 AU
  Orbit Determination Parameters
   # obs. used (total)      800  
   data-arc span      21287 days (58.28 yr)  
   first obs. used      1954-12-22  
   last obs. used      2013-04-03  
   planetary ephem.      DE405  
   SB-pert. ephem.      SB405-CPV-2  
   condition code      0  
   fit RMS      .52152  
   data source      ORB  
   producer      Otto Matic  
   solution date      2013-Apr-29 13:23:32  

Additional Information
 Earth MOID = .973074 AU 
 T_jup = 3.592 
[ show covariance matrix ]

Ephemeris | Orbit Diagram | Orbital Elements | Physical Parameters | Discovery Circumstances ]

Physical Parameter Table
Parameter Symbol Value Units Sigma Reference Notes
absolute magnitude H 14.3 mag n/a PDS3 (MPC 28116)  

6841 Gottfriedkirch (2034 P-L)          Discovered 1960-Sep-24 by van Houten, C. J., van Houten-Groeneveld, I., Gehrels, T. at Palomar (675)
Reference: DISCOVERY.DBLast Updated: 2003-08-29

Alternate Designations
 2034 P-L = 1954 YQ = 1994 PX33 
Ephemeris | Orbit Diagram | Orbital Elements | Physical Parameters | Discovery Circumstances ]
ABOUT SSD CREDITS/AWARDS PRIVACY/COPYRIGHT GLOSSARY LINKS
FirstGov 2013-May-22 18:57 UT
(server date/time)  
NASA Home Page
Site Manager:   Donald K. Yeomans
Webmaster  Alan B. Chamberlin